Weather History for KNUW - October, 2011

Change the Weather History Date:

Monday, October 10, 2011

  Actual Average Record
Temperature  
Mean Temperature 54 °F -  
Max Temperature 61 °F 56 °F 68 °F (2005)
Min Temperature 48 °F 42 °F 34 °F (1999)
Degree Days  
Heating Degree Days 11    
Growing Degree Days 4 (Base 50)    
Moisture  
Dew Point 49 °F    
Average Humidity 83    
Maximum Humidity 93    
Minimum Humidity 69    
Precipitation  
Precipitation 0.02 in - - ()
Sea Level Pressure  
Sea Level Pressure 29.59 in    
Wind  
Wind Speed 11 mph (SE)    
Max Wind Speed 28 mph    
Max Gust Speed 36 mph    
Visibility 10 miles    
Events Rain    
Averages and records for this station are not official NWS values.
T = Trace of Precipitation, MM = Missing Value Source: NWS Daily Summary

Daily Weather History Graph

Daily Weather History Graph

Search for Another Location

Airport or City:

Trip Planner

Search our weather history database for the weather conditions in past years. The results will help you decide how hot, cold, wet, or windy it might be!

Date:

Astronomy

Oct. 10, 2011 Rise Set
Actual Time 7:22 AM PDT 6:31 PM PDT
Civil Twilight 6:51 AM PDT 7:02 PM PDT
Nautical Twilight 6:15 AM PDT 7:39 PM PDT
Astronomical Twilight 5:38 AM PDT 8:15 PM PDT
Moon 5:37 PM PDT (10/10) 6:07 AM PDT (10/10)
Length of Visible Light 12h 11m
Length of Day
11h 08m
Waxing Gibbous, 98% of the Moon is Illuminated
Oct 10
Waxing Gibbous
Oct 11
Full
Oct 19
Last Quarter
Oct 26
New
Nov 2
First Quarter

Hourly Weather History & Observations

Time (PDT) Temp. Dew Point Humidity Pressure Visibility Wind Dir Wind Speed Gust Speed Precip Events Conditions
12:25 AM 48.2 °F 44.6 °F 87% 29.80 in 10.0 mi NNE 3.5 mph - N/A   Mostly Cloudy
12:49 AM 48.2 °F 46.4 °F 93% 29.77 in 10.0 mi East 10.4 mph - N/A   Scattered Clouds
12:56 AM 48.9 °F 46.0 °F 90% 29.78 in 10.0 mi East 8.1 mph - N/A   Partly Cloudy
1:56 AM 48.9 °F 46.0 °F 90% 29.77 in 10.0 mi ESE 5.8 mph - N/A   Clear
2:56 AM 51.1 °F 48.0 °F 89% 29.73 in 10.0 mi East 10.4 mph - N/A   Clear
3:56 AM 53.1 °F 48.9 °F 86% 29.68 in 10.0 mi ESE 12.7 mph - N/A   Clear
4:35 AM 53.6 °F 48.2 °F 82% 29.66 in 10.0 mi ESE 12.7 mph - N/A   Mostly Cloudy
4:56 AM 54.0 °F 48.9 °F 83% 29.67 in 10.0 mi SE 9.2 mph - N/A   Overcast
5:31 AM 53.6 °F 48.2 °F 82% 29.63 in 10.0 mi ESE 12.7 mph - N/A   Scattered Clouds
5:56 AM 54.0 °F 48.9 °F 83% 29.64 in 10.0 mi SE 10.4 mph - N/A   Mostly Cloudy
6:56 AM 55.9 °F 50.0 °F 80% 29.62 in 10.0 mi SSE 17.3 mph 25.3 mph N/A   Overcast
7:53 AM 50.0 °F 46.4 °F 87% 29.60 in 10.0 mi West 5.8 mph - 0.00 in Rain Light Rain
7:56 AM 51.1 °F 46.9 °F 86% 29.61 in 10.0 mi Variable 3.5 mph - 0.00 in Rain Light Rain
8:04 AM 51.8 °F 46.4 °F 82% 29.59 in 10.0 mi ENE 4.6 mph - 0.00 in   Overcast
8:56 AM 55.0 °F 50.0 °F 83% 29.58 in 10.0 mi ESE 11.5 mph - 0.00 in   Overcast
9:56 AM 55.9 °F 48.9 °F 77% 29.55 in 10.0 mi North - - N/A   Overcast
10:56 AM 55.0 °F 48.9 °F 80% 29.54 in 10.0 mi SE 16.1 mph 23.0 mph 0.00 in Rain Light Rain
11:56 AM 57.0 °F 50.0 °F 77% 29.51 in 10.0 mi SE 18.4 mph 28.8 mph 0.01 in   Overcast
12:56 PM 59.0 °F 48.9 °F 69% 29.49 in 10.0 mi SE 23.0 mph 29.9 mph N/A   Scattered Clouds
1:56 PM 60.1 °F 50.0 °F 69% 29.48 in 10.0 mi SE 27.6 mph 35.7 mph N/A   Mostly Cloudy
2:48 PM 57.2 °F 50.0 °F 77% 29.49 in 10.0 mi SSE 23.0 mph 35.7 mph N/A   Mostly Cloudy
2:56 PM 57.9 °F 50.0 °F 75% 29.50 in 10.0 mi SSE 20.7 mph 28.8 mph N/A   Mostly Cloudy
3:45 PM 55.4 °F 50.0 °F 82% 29.49 in 10.0 mi SSE 12.7 mph - N/A   Mostly Cloudy
3:56 PM 55.9 °F 50.0 °F 80% 29.51 in 10.0 mi SSE 11.5 mph - N/A   Mostly Cloudy
4:56 PM 57.0 °F 51.1 °F 81% 29.53 in 10.0 mi SSE 9.2 mph - N/A   Overcast
5:56 PM 57.0 °F 51.1 °F 81% 29.54 in 10.0 mi SE 6.9 mph - N/A   Mostly Cloudy
6:56 PM 55.9 °F 52.0 °F 87% 29.55 in 9.0 mi ESE 3.5 mph - 0.01 in Rain Light Rain
7:10 PM 55.4 °F 51.8 °F 88% 29.53 in 10.0 mi SE 9.2 mph - 0.00 in Rain Light Rain
7:40 PM 55.4 °F 51.8 °F 88% 29.52 in 10.0 mi SE 10.4 mph - 0.00 in   Overcast
7:56 PM 55.9 °F 52.0 °F 87% 29.54 in 10.0 mi SE 12.7 mph - 0.00 in   Overcast
8:56 PM 55.9 °F 51.1 °F 84% 29.54 in 10.0 mi SSE 16.1 mph 20.7 mph N/A   Overcast
9:56 PM 55.9 °F 50.0 °F 80% 29.54 in 10.0 mi SSE 16.1 mph 29.9 mph N/A   Overcast
10:56 PM 55.0 °F 50.0 °F 83% 29.53 in 10.0 mi SE 23.0 mph 33.4 mph N/A   Overcast
11:56 PM 55.0 °F 50.0 °F 83% 29.52 in 10.0 mi SE 23.0 mph 29.9 mph N/A   Overcast